"Period start","avg(HW err(1)/warn(2) (#))","avg(Visibility (m))","avg(Weather code (#))","avg(Precip intensity (mm/h))","min(HW err(1)/warn(2) (#))","max(HW err(1)/warn(2) (#))","std(HW err(1)/warn(2) (#))","med(HW err(1)/warn(2) (#))","min(Visibility (m))","max(Visibility (m))","std(Visibility (m))","med(Visibility (m))","min(Weather code (#))","max(Weather code (#))","std(Weather code (#))","med(Weather code (#))","min(Precip intensity (mm/h))","max(Precip intensity (mm/h))","std(Precip intensity (mm/h))","med(Precip intensity (mm/h))"
2014-06-22 00:00:00,0,50000,0,0.00,0,0,0,0,50000,50000,0,50000,0,0,0,0,0.00,0.00,0.00,0.00
2014-06-22 00:10:00,0,49335,0,0.00,0,0,0,0,46164,50000,1350,50000,0,0,0,0,0.00,0.00,0.00,0.00
2014-06-22 00:20:00,0,50000,0,0.00,0,0,0,0,50000,50000,0,50000,0,0,0,0,0.00,0.00,0.00,0.00
2014-06-22 00:30:00,0,48960,0,0.00,0,0,0,0,44820,50000,1815,50000,0,0,0,0,0.00,0.00,0.00,0.00
2014-06-22 00:40:00,0,49173,0,0.00,0,0,0,0,42749,50000,2163,50000,0,0,0,0,0.00,0.00,0.00,0.00
2014-06-22 00:50:00,0,47030,0,0.00,0,0,0,0,34884,50000,4978,49558,0,0,0,0,0.00,0.00,0.00,0.00
2014-06-22 01:00:00,0,45227,0,0.00,0,0,0,0,34854,50000,5199,47286,0,0,0,0,0.00,0.00,0.00,0.00
2014-06-22 01:10:00,0,46198,0,0.00,0,0,0,0,26447,50000,7659,50000,0,0,0,0,0.00,0.00,0.00,0.00
2014-06-22 01:20:00,0,45683,0,0.00,0,0,0,0,33335,50000,5862,48035,0,0,0,0,0.00,0.00,0.00,0.00
2014-06-22 01:30:00,0,39455,0,0.00,0,0,0,0,27140,47055,6385,41833,0,0,0,0,0.00,0.00,0.00,0.00
2014-06-22 01:40:00,0,47288,0,0.00,0,0,0,0,42349,50000,3019,48855,0,0,0,0,0.00,0.00,0.00,0.00
2014-06-22 01:50:00,0,48430,0,0.00,0,0,0,0,44528,50000,1649,48455,0,0,0,0,0.00,0.00,0.00,0.00
2014-06-22 02:00:00,0,48598,0,0.00,0,0,0,0,42861,50000,2150,49532,0,0,0,0,0.00,0.00,0.00,0.00
2014-06-22 02:10:00,0,50000,0,0.00,0,0,0,0,50000,50000,0,50000,0,0,0,0,0.00,0.00,0.00,0.00
2014-06-22 02:20:00,0,49727,0,0.00,0,0,0,0,47270,50000,819,50000,0,0,0,0,0.00,0.00,0.00,0.00
2014-06-22 02:30:00,0,50000,0,0.00,0,0,0,0,50000,50000,0,50000,0,0,0,0,0.00,0.00,0.00,0.00
2014-06-22 02:40:00,0,49172,0,0.00,0,0,0,0,45877,50000,1441,50000,0,0,0,0,0.00,0.00,0.00,0.00
2014-06-22 02:50:00,0,49030,0,0.00,0,0,0,0,45914,50000,1591,50000,0,0,0,0,0.00,0.00,0.00,0.00
2014-06-22 03:00:00,0,49196,0,0.00,0,0,0,0,45738,50000,1372,50000,0,0,0,0,0.00,0.00,0.00,0.00
2014-06-22 03:10:00,0,50000,0,0.00,0,0,0,0,50000,50000,0,50000,0,0,0,0,0.00,0.00,0.00,0.00
2014-06-22 03:20:00,0,48726,0,0.00,0,0,0,0,39174,50000,3228,50000,0,0,0,0,0.00,0.00,0.00,0.00
2014-06-22 03:30:00,0,48733,0,0.00,0,0,0,0,40363,50000,2879,50000,0,0,0,0,0.00,0.00,0.00,0.00
2014-06-22 03:40:00,0,49617,0,0.00,0,0,0,0,47916,50000,770,50000,0,0,0,0,0.00,0.00,0.00,0.00
2014-06-22 03:50:00,0,49307,0,0.00,0,0,0,0,45131,50000,1429,50000,0,0,0,0,0.00,0.00,0.00,0.00
2014-06-22 04:00:00,0,47835,0,0.00,0,0,0,0,40771,50000,2904,49345,0,0,0,0,0.00,0.00,0.00,0.00
2014-06-22 04:10:00,0,44375,0,0.00,0,0,0,0,28432,50000,6885,48025,0,0,0,0,0.00,0.00,0.00,0.00
2014-06-22 04:20:00,0,48436,0,0.00,0,0,0,0,44680,50000,1865,49414,0,0,0,0,0.00,0.00,0.00,0.00
2014-06-22 04:30:00,0,49483,0,0.00,0,0,0,0,45639,50000,1300,50000,0,0,0,0,0.00,0.00,0.00,0.00
2014-06-22 04:40:00,0,49962,0,0.00,0,0,0,0,49625,50000,112,50000,0,0,0,0,0.00,0.00,0.00,0.00
2014-06-22 04:50:00,0,47735,0,0.00,0,0,0,0,38862,50000,3848,50000,0,0,0,0,0.00,0.00,0.00,0.00
2014-06-22 05:00:00,0,47526,0,0.00,0,0,0,0,36772,50000,4137,49692,0,0,0,0,0.00,0.00,0.00,0.00
2014-06-22 05:10:00,0,48465,0,0.00,0,0,0,0,43063,50000,2519,49917,0,0,0,0,0.00,0.00,0.00,0.00
2014-06-22 05:20:00,0,44854,0,0.00,0,0,0,0,37203,49646,4151,46414,0,0,0,0,0.00,0.00,0.00,0.00
2014-06-22 05:30:00,0,47579,0,0.00,0,0,0,0,40545,50000,2992,48686,0,0,0,0,0.00,0.00,0.00,0.00
2014-06-22 05:40:00,0,49629,0,0.00,0,0,0,0,46289,50000,1113,50000,0,0,0,0,0.00,0.00,0.00,0.00
2014-06-22 05:50:00,0,49912,0,0.00,0,0,0,0,49119,50000,264,50000,0,0,0,0,0.00,0.00,0.00,0.00
2014-06-22 06:00:00,0,49446,0,0.00,0,0,0,0,47874,50000,794,50000,0,0,0,0,0.00,0.00,0.00,0.00
2014-06-22 06:10:00,0,47141,0,0.00,0,0,0,0,42213,50000,3190,48908,0,0,0,0,0.00,0.00,0.00,0.00
2014-06-22 06:20:00,0,39423,0,0.00,0,0,0,0,31674,50000,6422,38238,0,0,0,0,0.00,0.00,0.00,0.00
2014-06-22 06:30:00,0,45473,0,0.00,0,0,0,0,38312,50000,3830,46768,0,0,0,0,0.00,0.00,0.00,0.00
2014-06-22 06:40:00,0,47356,0,0.00,0,0,0,0,38089,50000,3854,49851,0,0,0,0,0.00,0.00,0.00,0.00
2014-06-22 06:50:00,0,46349,0,0.00,0,0,0,0,42333,50000,2729,47182,0,0,0,0,0.00,0.00,0.00,0.00
2014-06-22 07:00:00,0,45820,0,0.00,0,0,0,0,39459,50000,3677,46152,0,0,0,0,0.00,0.00,0.00,0.00
2014-06-22 07:10:00,0,49671,0,0.00,0,0,0,0,48117,50000,666,50000,0,0,0,0,0.00,0.00,0.00,0.00
2014-06-22 07:20:00,0,48341,0,0.00,0,0,0,0,43509,50000,2360,50000,0,0,0,0,0.00,0.00,0.00,0.00
2014-06-22 07:30:00,0,49722,0,0.00,0,0,0,0,47259,50000,821,50000,0,0,0,0,0.00,0.00,0.00,0.00
2014-06-22 07:40:00,0,49266,0,0.00,0,0,0,0,45445,50000,1360,50000,0,0,0,0,0.00,0.00,0.00,0.00
2014-06-22 07:50:00,0,49945,0,0.00,0,0,0,0,49452,50000,164,50000,0,0,0,0,0.00,0.00,0.00,0.00
2014-06-22 08:00:00,0,49894,0,0.00,0,0,0,0,48936,50000,319,50000,0,0,0,0,0.00,0.00,0.00,0.00
2014-06-22 08:10:00,0,49899,0,0.00,0,0,0,0,48987,50000,304,50000,0,0,0,0,0.00,0.00,0.00,0.00
2014-06-22 08:20:00,0,49444,0,0.00,0,0,0,0,45252,50000,1418,50000,0,0,0,0,0.00,0.00,0.00,0.00
2014-06-22 08:30:00,0,48806,0,0.00,0,0,0,0,44775,50000,1808,50000,0,0,0,0,0.00,0.00,0.00,0.00
2014-06-22 08:40:00,0,43865,0,0.00,0,0,0,0,35552,50000,5320,43360,0,0,0,0,0.00,0.00,0.00,0.00
2014-06-22 08:50:00,0,48588,0,0.00,0,0,0,0,44618,50000,2112,50000,0,0,0,0,0.00,0.00,0.00,0.00
2014-06-22 09:00:00,0,41974,35,0.83,0,0,0,0,24941,50000,7419,43794,0,61,28,51,0.00,2.95,0.97,0.45
2014-06-22 09:10:00,0,34728,61,2.33,0,0,0,0,26129,43053,6123,33616,61,61,0,61,0.50,7.35,1.83,2.12
2014-06-22 09:20:00,0,37482,61,1.56,0,0,0,0,27488,46399,6658,37682,61,61,0,61,0.65,4.75,1.14,1.12
2014-06-22 09:30:00,0,40400,59,0.36,0,0,0,0,30884,50000,6692,40434,51,61,4,61,0.00,1.35,0.42,0.15
2014-06-22 09:40:00,0,41292,53,0.52,0,0,0,0,34746,47416,3346,41030,51,61,4,51,0.10,1.15,0.32,0.50
2014-06-22 09:50:00,0,38757,43,0.22,0,0,0,0,29135,48681,6705,39090,0,61,22,52,0.00,0.75,0.26,0.10
2014-06-22 10:00:00,0,48657,0,0.00,0,0,0,0,46727,50000,1248,48541,0,0,0,0,0.00,0.00,0.00,0.00
2014-06-22 10:10:00,0,46898,0,0.00,0,0,0,0,39054,50000,3796,48482,0,0,0,0,0.00,0.00,0.00,0.00
2014-06-22 10:20:00,0,48041,0,0.00,0,0,0,0,42717,50000,2562,50000,0,0,0,0,0.00,0.00,0.00,0.00
2014-06-22 10:30:00,0,44071,0,0.00,0,0,0,0,29891,50000,6467,45407,0,0,0,0,0.00,0.00,0.00,0.00
2014-06-22 10:40:00,0,43114,0,0.00,0,0,0,0,25232,50000,8764,47788,0,0,0,0,0.00,0.00,0.00,0.00
2014-06-22 10:50:00,0,49842,0,0.00,0,0,0,0,48423,50000,473,50000,0,0,0,0,0.00,0.00,0.00,0.00
2014-06-22 11:00:00,0,49270,0,0.00,0,0,0,0,45373,50000,1523,50000,0,0,0,0,0.00,0.00,0.00,0.00
2014-06-22 11:10:00,0,49890,0,0.00,0,0,0,0,48901,50000,330,50000,0,0,0,0,0.00,0.00,0.00,0.00
2014-06-22 11:20:00,0,50000,0,0.00,0,0,0,0,50000,50000,0,50000,0,0,0,0,0.00,0.00,0.00,0.00
2014-06-22 11:30:00,0,50000,0,0.00,0,0,0,0,50000,50000,0,50000,0,0,0,0,0.00,0.00,0.00,0.00
2014-06-22 11:40:00,0,50000,0,0.00,0,0,0,0,50000,50000,0,50000,0,0,0,0,0.00,0.00,0.00,0.00
2014-06-22 11:50:00,0,46742,0,0.00,0,0,0,0,32455,50000,5862,50000,0,0,0,0,0.00,0.00,0.00,0.00
2014-06-22 12:00:00,0,33064,0,0.00,0,0,0,0,8151,50000,17812,43451,0,0,0,0,0.00,0.00,0.00,0.00
2014-06-22 12:10:00,0,6534,49,2.13,0,0,0,0,4433,7889,1119,6900,0,61,17,52,0.00,4.95,1.47,1.85
2014-06-22 12:20:00,0,5188,53,4.06,0,0,0,0,4521,5802,343,5192,52,53,0,53,1.80,6.20,1.58,4.30
2014-06-22 12:30:00,0,4658,52,4.37,0,0,0,0,3796,5771,756,4218,52,53,0,52,1.90,7.70,2.01,4.35
2014-06-22 12:40:00,0,4877,53,3.83,0,0,0,0,3939,7942,1146,4392,52,53,0,53,0.10,7.95,2.45,3.68
2014-06-22 12:50:00,0,34767,5,0.01,0,0,0,0,10317,50000,15324,40057,0,52,16,0,0.00,0.05,0.02,0.00
2014-06-22 13:00:00,0,38601,0,0.00,0,0,0,0,16101,50000,12956,43820,0,0,0,0,0.00,0.00,0.00,0.00
2014-06-22 13:10:00,0,16330,0,0.00,0,0,0,0,14289,17989,1131,16110,0,0,0,0,0.00,0.00,0.00,0.00
2014-06-22 13:20:00,0,21035,0,0.00,0,0,0,0,17401,25527,2372,20860,0,0,0,0,0.00,0.00,0.00,0.00
2014-06-22 13:30:00,0,14894,0,0.00,0,0,0,0,13560,15895,724,15166,0,0,0,0,0.00,0.00,0.00,0.00
2014-06-22 13:40:00,0,13944,0,0.00,0,0,0,0,12955,14729,561,14072,0,0,0,0,0.00,0.00,0.00,0.00
2014-06-22 13:50:00,0,13291,0,0.00,0,0,0,0,11440,17095,1424,13011,0,0,0,0,0.00,0.00,0.00,0.00
2014-06-22 14:00:00,0,18542,0,0.00,0,0,0,0,15201,22952,2218,18216,0,0,0,0,0.00,0.00,0.00,0.00
2014-06-22 14:10:00,0,22971,0,0.00,0,0,0,0,17887,27563,2846,22301,0,0,0,0,0.00,0.00,0.00,0.00
2014-06-22 14:20:00,0,21544,0,0.00,0,0,0,0,18882,23955,1588,21242,0,0,0,0,0.00,0.00,0.00,0.00
2014-06-22 14:30:00,0,19436,0,0.00,0,0,0,0,17637,21761,1059,19398,0,0,0,0,0.00,0.00,0.00,0.00
2014-06-22 14:40:00,0,20414,0,0.00,0,0,0,0,19008,22433,1154,20400,0,0,0,0,0.00,0.00,0.00,0.00
2014-06-22 14:50:00,0,20469,0,0.00,0,0,0,0,18696,22097,1026,20473,0,0,0,0,0.00,0.00,0.00,0.00
2014-06-22 15:00:00,0,20372,0,0.00,0,0,0,0,17286,25499,2402,20493,0,0,0,0,0.00,0.00,0.00,0.00
2014-06-22 15:10:00,0,18734,0,0.00,0,0,0,0,16571,23118,1775,18492,0,0,0,0,0.00,0.00,0.00,0.00
2014-06-22 15:20:00,0,18793,0,0.00,0,0,0,0,16515,22075,1579,18296,0,0,0,0,0.00,0.00,0.00,0.00
2014-06-22 15:30:00,0,19149,0,0.00,0,0,0,0,16326,24021,2048,18838,0,0,0,0,0.00,0.00,0.00,0.00
2014-06-22 15:40:00,0,21427,0,0.00,0,0,0,0,16309,25274,3272,22258,0,0,0,0,0.00,0.00,0.00,0.00
2014-06-22 15:50:00,0,22144,0,0.00,0,0,0,0,17311,25734,2037,22552,0,0,0,0,0.00,0.00,0.00,0.00
2014-06-22 16:00:00,0,25333,0,0.00,0,0,0,0,21273,29802,2578,24009,0,0,0,0,0.00,0.00,0.00,0.00
2014-06-22 16:10:00,0,24352,0,0.00,0,0,0,0,20763,28622,2505,24201,0,0,0,0,0.00,0.00,0.00,0.00
2014-06-22 16:20:00,0,21326,0,0.00,0,0,0,0,20428,22414,583,21382,0,0,0,0,0.00,0.00,0.00,0.00
2014-06-22 16:30:00,0,26550,0,0.00,0,0,0,0,21108,32093,3851,26534,0,0,0,0,0.00,0.00,0.00,0.00
2014-06-22 16:40:00,0,35894,0,0.00,0,0,0,0,30599,41278,3460,35840,0,0,0,0,0.00,0.00,0.00,0.00
2014-06-22 16:50:00,0,41712,0,0.00,0,0,0,0,35593,48782,4392,40424,0,0,0,0,0.00,0.00,0.00,0.00
2014-06-22 17:00:00,0,43354,0,0.00,0,0,0,0,38502,50000,3386,43237,0,0,0,0,0.00,0.00,0.00,0.00
2014-06-22 17:10:00,0,42768,0,0.00,0,0,0,0,37230,47917,3932,42956,0,0,0,0,0.00,0.00,0.00,0.00
2014-06-22 17:20:00,0,39463,0,0.00,0,0,0,0,33477,44970,4003,39292,0,0,0,0,0.00,0.00,0.00,0.00
2014-06-22 17:30:00,0,43538,0,0.00,0,0,0,0,36093,50000,4900,42998,0,0,0,0,0.00,0.00,0.00,0.00
2014-06-22 17:40:00,0,40173,0,0.00,0,0,0,0,37671,47090,2511,39838,0,0,0,0,0.00,0.00,0.00,0.00
2014-06-22 17:50:00,0,36370,0,0.00,0,0,0,0,30940,41442,3594,36594,0,0,0,0,0.00,0.00,0.00,0.00
2014-06-22 18:00:00,0,42420,0,0.00,0,0,0,0,34400,49306,3886,42210,0,0,0,0,0.00,0.00,0.00,0.00
2014-06-22 18:10:00,0,41002,0,0.00,0,0,0,0,31473,49949,6007,40472,0,0,0,0,0.00,0.00,0.00,0.00
2014-06-22 18:20:00,0,42484,0,0.00,0,0,0,0,34776,50000,5191,43582,0,0,0,0,0.00,0.00,0.00,0.00
2014-06-22 18:30:00,0,44275,0,0.00,0,0,0,0,38536,47408,2424,44765,0,0,0,0,0.00,0.00,0.00,0.00
2014-06-22 18:40:00,0,41397,0,0.00,0,0,0,0,33225,48733,5698,40354,0,0,0,0,0.00,0.00,0.00,0.00
2014-06-22 18:50:00,0,40790,0,0.00,0,0,0,0,34999,49276,3774,40366,0,0,0,0,0.00,0.00,0.00,0.00
2014-06-22 19:00:00,0,46110,0,0.00,0,0,0,0,40284,50000,3425,46264,0,0,0,0,0.00,0.00,0.00,0.00
2014-06-22 19:10:00,0,41956,0,0.00,0,0,0,0,35255,49716,3720,41664,0,0,0,0,0.00,0.00,0.00,0.00
2014-06-22 19:20:00,0,43444,0,0.00,0,0,0,0,39912,49937,2975,42945,0,0,0,0,0.00,0.00,0.00,0.00
2014-06-22 19:30:00,0,41363,0,0.00,0,0,0,0,32420,50000,6167,39452,0,0,0,0,0.00,0.00,0.00,0.00
2014-06-22 19:40:00,0,44166,0,0.00,0,0,0,0,37286,47943,2888,44360,0,0,0,0,0.00,0.00,0.00,0.00
2014-06-22 19:50:00,0,39541,0,0.00,0,0,0,0,30587,48146,5851,39341,0,0,0,0,0.00,0.00,0.00,0.00
2014-06-22 20:00:00,0,42812,0,0.00,0,0,0,0,36342,48315,4070,44589,0,0,0,0,0.00,0.00,0.00,0.00
2014-06-22 20:10:00,0,46955,0,0.00,0,0,0,0,43257,50000,2665,46590,0,0,0,0,0.00,0.00,0.00,0.00
2014-06-22 20:20:00,0,43446,0,0.00,0,0,0,0,39471,49125,2965,43038,0,0,0,0,0.00,0.00,0.00,0.00
2014-06-22 20:30:00,0,40758,0,0.00,0,0,0,0,33526,45171,3699,40840,0,0,0,0,0.00,0.00,0.00,0.00
2014-06-22 20:40:00,0,42778,0,0.00,0,0,0,0,33291,50000,4939,43012,0,0,0,0,0.00,0.00,0.00,0.00
2014-06-22 20:50:00,0,43431,0,0.00,0,0,0,0,37121,48890,3981,43162,0,0,0,0,0.00,0.00,0.00,0.00
2014-06-22 21:00:00,0,46757,0,0.00,0,0,0,0,35727,50000,4297,48582,0,0,0,0,0.00,0.00,0.00,0.00
2014-06-22 21:10:00,0,45410,0,0.00,0,0,0,0,40549,49731,2897,44800,0,0,0,0,0.00,0.00,0.00,0.00
2014-06-22 21:20:00,0,42889,0,0.00,0,0,0,0,34080,49907,5427,42238,0,0,0,0,0.00,0.00,0.00,0.00
2014-06-22 21:30:00,0,46964,0,0.00,0,0,0,0,41726,50000,3077,48326,0,0,0,0,0.00,0.00,0.00,0.00
2014-06-22 21:40:00,0,46349,0,0.00,0,0,0,0,37109,50000,3957,47587,0,0,0,0,0.00,0.00,0.00,0.00
2014-06-22 21:50:00,0,47706,0,0.00,0,0,0,0,45306,50000,1661,47555,0,0,0,0,0.00,0.00,0.00,0.00
2014-06-22 22:00:00,0,48514,0,0.00,0,0,0,0,42919,50000,2219,50000,0,0,0,0,0.00,0.00,0.00,0.00
2014-06-22 22:10:00,0,44261,0,0.00,0,0,0,0,36274,50000,4763,44528,0,0,0,0,0.00,0.00,0.00,0.00
2014-06-22 22:20:00,0,46141,0,0.00,0,0,0,0,37474,50000,4249,47208,0,0,0,0,0.00,0.00,0.00,0.00
2014-06-22 22:30:00,0,41502,0,0.00,0,0,0,0,32110,50000,5139,41316,0,0,0,0,0.00,0.00,0.00,0.00
2014-06-22 22:40:00,0,47022,0,0.00,0,0,0,0,40713,50000,2649,47024,0,0,0,0,0.00,0.00,0.00,0.00
2014-06-22 22:50:00,0,44237,0,0.00,0,0,0,0,30056,50000,6163,47134,0,0,0,0,0.00,0.00,0.00,0.00
2014-06-22 23:00:00,0,38221,0,0.00,0,0,0,0,29052,49042,5679,38960,0,0,0,0,0.00,0.00,0.00,0.00
2014-06-22 23:10:00,0,41508,0,0.00,0,0,0,0,32821,48111,4306,41467,0,0,0,0,0.00,0.00,0.00,0.00
2014-06-22 23:20:00,0,42201,0,0.00,0,0,0,0,32708,48815,5216,44694,0,0,0,0,0.00,0.00,0.00,0.00
2014-06-22 23:30:00,0,43777,0,0.00,0,0,0,0,36239,49557,4874,45520,0,0,0,0,0.00,0.00,0.00,0.00
2014-06-22 23:40:00,0,49340,0,0.00,0,0,0,0,44822,50000,1533,50000,0,0,0,0,0.00,0.00,0.00,0.00
2014-06-22 23:50:00,0,48655,0,0.00,0,0,0,0,43981,50000,2005,49810,0,0,0,0,0.00,0.00,0.00,0.00
